K4SPB-4 Weather Reports


time (UTC)temp
C
wind
direction
speed
KPH
gust
KPH
rain 1hr
cm
rain 24hr
cm
rain mn
cm
humidity
%
barometer
mb
20260510142026 22 252 3.2 4.8 0.00 0.00 0.00 78 1015.4
20260510141023 22 0.0 0.0 0.00 0.00 0.00 80 1015.6
20260510140543 22 269 1.6 4.8 0.00 0.00 0.00 81 1015.4
20260510135521 21 266 1.6 3.2 0.00 0.00 0.00 82 1015.4
20260510134518 21 277 3.2 4.8 0.00 0.00 0.00 83 1015.4
20260510133518 21 329 0.0 1.6 0.00 0.00 0.00 84 1015.3
20260510132535 20 294 1.6 3.2 0.00 0.00 0.00 85 1015.3
20260510131532 20 286 1.6 3.2 0.00 0.00 0.00 85 1015.0
20260510130028 20 294 0.0 1.6 0.00 0.00 0.00 86 1015.1
20260510125046 19 0.0 0.0 0.00 0.00 0.00 87 1015.0
20260510124043 19 267 0.0 1.6 0.00 0.00 0.00 88 1015.2
20260510123025 18 301 0.0 1.6 0.00 0.00 0.00 89 1014.9
20260510122019 17 0.0 0.0 0.00 0.00 0.00 90 1015.0
20260510121016 16 0.0 0.0 0.00 0.00 0.00 90 1014.8
20260510120049 16 0.0 0.0 0.00 0.00 0.00 91 1014.9
20260510115034 15 0.0 0.0 0.00 0.00 0.00 91 1014.9
20260510114030 15 0.0 0.0 0.00 0.00 0.00 92 1014.7
20260510113029 15 0.0 0.0 0.00 0.00 0.00 92 1014.6
20260510112026 15 0.0 0.0 0.00 0.00 0.00 92 1014.5
20260510111025 15 0.0 0.0 0.00 0.00 0.00 92 1014.5
20260510110021 15 0.0 0.0 0.00 0.00 0.00 92 1014.3
20260510105038 15 0.0 0.0 0.00 0.00 0.00 92 1014.0
20260510104015 15 0.0 0.0 0.00 0.00 0.00 91 1013.8
20260510103041 15 0.0 0.0 0.00 0.00 0.00 91 1013.8
20260510102032 15 0.0 0.0 0.00 0.00 0.00 91 1013.6
20260510101029 15 0.0 0.0 0.00 0.00 0.00 90 1013.6
20260510100047 15 0.0 0.0 0.00 0.00 0.00 90 1013.5
20260510095045 15 0.0 0.0 0.00 0.00 0.00 90 1013.4
20260510094023 15 0.0 0.0 0.00 0.00 0.00 89 1013.2
20260510093021 15 0.0 0.0 0.00 0.00 0.00 89 1013.2
20260510092019 15 0.0 0.0 0.00 0.00 0.00 88 1012.9
20260510091017 16 0.0 0.0 0.00 0.00 0.00 88 1012.7
20260510090034 16 0.0 0.0 0.00 0.00 0.00 87 1012.7
20260510085033 16 0.0 0.0 0.00 0.00 0.00 87 1012.7
20260510084050 16 0.0 0.0 0.00 0.00 0.00 86 1012.7
20260510083028 16 0.0 0.0 0.00 0.00 0.00 85 1012.7
20260510082026 16 0.0 0.0 0.00 0.00 0.00 84 1012.7
20260510081024 16 0.0 0.0 0.00 0.00 0.00 84 1012.5
20260510080042 17 0.0 0.0 0.00 0.00 0.00 83 1012.4
20260510075059 17 0.0 0.0 0.00 0.00 0.00 82 1012.5
20260510074016 17 0.0 0.0 0.00 0.00 0.00 81 1012.5
20260510073034 17 0.0 0.0 0.00 0.00 0.00 79 1012.6
20260510072034 18 0.0 0.0 0.00 0.00 0.00 82 1012.4
20260510071030 18 0.0 0.0 0.00 0.00 0.00 80 1012.5
20260510070029 18 0.0 0.0 0.00 0.00 0.00 78 1012.7
20260510065026 18 287 0.0 1.6 0.00 0.00 0.00 77 1012.5
20260510064024 17 0.0 0.0 0.00 0.00 0.00 78 1012.5
20260510063023 16 0.0 0.0 0.00 0.00 0.00 76 1012.3
20260510062021 16 0.0 0.0 0.00 0.00 0.00 75 1012.2
20260510061017 16 0.0 0.0 0.00 0.00 0.00 77 1012.2
20260510060035 16 0.0 0.0 0.00 0.00 0.00 77 1012.2
20260510055034 17 71 0.0 1.6 0.00 0.00 0.00 75 1012.1
20260510054031 17 0.0 0.0 0.00 0.00 0.00 73 1012.1
20260510053029 17 0.0 0.0 0.00 0.00 0.00 72 1012.1
20260510052026 17 0.0 0.0 0.00 0.00 0.00 72 1012.0
20260510051025 17 0.0 0.0 0.00 0.00 0.00 72 1011.9
20260510050040 17 0.0 0.0 0.00 0.00 0.00 71 1011.9
20260510045037 17 0.0 0.0 0.00 0.00 0.00 71 1012.1
20260510044035 17 0.0 0.0 0.00 0.00 0.00 70 1011.9
20260510043033 17 0.0 0.0 0.00 0.00 0.00 69 1011.9
20260510042031 18 0.0 0.0 0.00 0.00 0.00 68 1012.0
20260510041030 17 0.0 0.0 0.00 0.00 0.00 65 1012.1
20260510040026 17 0.0 0.0 0.00 0.00 0.00 70 1012.1
20260510035024 18 0.0 0.0 0.00 0.00 0.00 72 1012.1
20260510034029 18 0.0 0.0 0.00 0.00 0.00 71 1012.1
20260510033020 18 0.0 0.0 0.00 0.00 0.00 70 1012.1
20260510032018 18 0.0 0.0 0.00 0.00 0.00 69 1012.2
20260510031036 19 0.0 0.0 0.00 0.00 0.00 67 1012.2
20260510030033 19 0.0 0.0 0.00 0.00 0.00 65 1012.1
20260510025032 20 0.0 0.0 0.00 0.00 0.00 63 1012.0
20260510024029 20 0.0 0.0 0.00 0.00 0.00 62 1011.9
20260510023027 20 262 1.6 3.2 0.00 0.00 0.00 61 1011.7
20260510022026 20 0.0 0.0 0.00 0.00 0.00 58 1011.6
20260510021023 21 0.0 0.0 0.00 0.00 0.00 56 1011.6
20260510020020 21 0.0 0.0 0.00 0.00 0.00 56 1011.3
20260510015018 21 0.0 0.0 0.00 0.00 0.00 52 1011.0
20260510014056 22 0.0 0.0 0.00 0.00 0.00 51 1010.9
20260510013134 22 0.0 0.0 0.00 0.00 0.00 50 1010.9
20260510012032 22 0.0 0.0 0.00 0.00 0.00 48 1010.6
20260510011029 23 0.0 0.0 0.00 0.00 0.00 47 1010.5
20260510010029 23 0.0 0.0 0.00 0.00 0.00 45 1010.4
20260510005025 24 0.0 0.0 0.00 0.00 0.00 44 1010.2
20260510004022 25 0.0 0.0 0.00 0.00 0.00 42 1010.1
20260510003021 25 0.0 0.0 0.00 0.00 0.00 40 1010.0
20260510002018 25 0.0 0.0 0.00 0.00 0.00 39 1009.8
20260510001026 26 349 1.6 3.2 0.00 0.00 0.00 37 1009.7
20260510000035 26 0.0 0.0 0.00 0.00 0.00 37 1009.7
20260509235032 26 0.0 0.0 0.00 0.00 0.00 37 1009.6
20260509234029 26 0.0 0.0 0.00 0.00 0.00 36 1009.5
20260509233028 26 0.0 0.0 0.00 0.00 0.00 36 1009.4
20260509232025 26 0.0 0.0 0.00 0.00 0.00 35 1009.5
20260509231044 26 307 0.0 1.6 0.00 0.00 0.00 36 1009.4
20260509230019 26 350 1.6 1.6 0.00 0.00 0.00 34 1009.3
20260509225017 26 22 3.2 9.7 0.00 0.00 0.00 32 1009.3
20260509224036 26 11 3.2 12.9 0.00 0.00 0.00 31 1009.2
20260509223034 26 18 4.8 9.7 0.00 0.00 0.00 31 1009.0
20260509222035 26 11 3.2 6.4 0.00 0.00 0.00 31 1009.2
20260509221029 26 340 0.0 3.2 0.00 0.00 0.00 32 1009.2
20260509220026 27 352 0.0 1.6 0.00 0.00 0.00 33 1009.3
20260509215025 27 338 0.0 3.2 0.00 0.00 0.00 32 1009.4
20260509214022 27 203 1.6 4.8 0.00 0.00 0.00 32 1009.2
20260509213020 26 345 0.0 3.2 0.00 0.00 0.00 33 1009.4
20260509212025 26 16 4.8 12.9 0.00 0.00 0.00 32 1009.4
20260509211016 26 360 3.2 6.4 0.00 0.00 0.00 33 1009.4
20260509210034 26 346 1.6 6.4 0.00 0.00 0.00 34 1009.6
20260509205032 26 318 0.0 1.6 0.00 0.00 0.00 34 1009.5
20260509204029 26 6 1.6 4.8 0.00 0.00 0.00 33 1009.7
20260509203029 26 16 1.6 4.8 0.00 0.00 0.00 34 1009.6
20260509202025 26 11 1.6 4.8 0.00 0.00 0.00 33 1009.7
20260509201044 26 341 6.4 9.7 0.00 0.00 0.00 33 1009.8
20260509200021 26 51 1.6 6.4 0.00 0.00 0.00 37 1009.8
20260509195018 26 360 4.8 9.7 0.00 0.00 0.00 36 1009.8
20260509194037 26 331 1.6 9.7 0.00 0.00 0.00 37 1010.0
20260509193034 26 281 0.0 4.8 0.00 0.00 0.00 35 1010.0
20260509192031 26 311 1.6 3.2 0.00 0.00 0.00 35 1010.1
20260509191030 26 339 3.2 11.3 0.00 0.00 0.00 37 1010.1
20260509190026 26 345 3.2 14.5 0.00 0.00 0.00 37 1010.2
20260509185026 26 14 6.4 20.9 0.00 0.00 0.00 35 1010.1
20260509184023 26 35 3.2 6.4 0.00 0.00 0.00 37 1010.1
20260509183020 25 320 1.6 4.8 0.00 0.00 0.00 40 1010.3
20260509182018 25 346 3.2 9.7 0.00 0.00 0.00 41 1010.4
20260509181036 25 8 3.2 11.3 0.00 0.00 0.00 40 1010.5
20260509180034 25 295 3.2 6.4 0.00 0.00 0.00 38 1010.6
20260509175032 25 349 3.2 11.3 0.00 0.00 0.00 40 1010.6
20260509174030 24 15 4.8 12.9 0.00 0.00 0.00 44 1010.6
20260509173029 24 345 3.2 14.5 0.00 0.00 0.00 46 1010.6
20260509172024 24 342 4.8 11.3 0.00 0.00 0.00 48 1010.6
20260509171024 24 305 1.6 3.2 0.00 0.00 0.00 49 1010.6
20260509170021 23 254 3.2 6.4 0.00 0.00 0.00 49 1010.6
20260509165038 23 294 1.6 6.4 0.00 0.00 0.00 49 1010.7
20260509164016 23 346 3.2 6.4 0.00 0.00 0.00 52 1010.7
20260509163034 23 284 1.6 4.8 0.00 0.00 0.00 50 1010.6
20260509162031 23 29 3.2 9.7 0.00 0.00 0.00 53 1010.6
20260509161029 23 328 3.2 11.3 0.00 0.00 0.00 57 1010.6
20260509160027 22 268 4.8 6.4 0.00 0.00 0.00 57 1010.3
20260509155026 22 307 1.6 9.7 0.00 0.00 0.00 59 1010.4
20260509154024 22 307 3.2 9.7 0.00 0.00 0.00 60 1010.3
20260509153021 22 331 4.8 11.3 0.00 0.00 0.00 62 1010.2
20260509152020 22 9 4.8 16.1 0.00 0.00 0.00 63 1010.1
20260509151020 21 353 6.4 12.9 0.00 0.00 0.00 63 1010.3
20260509150035 21 294 3.2 9.7 0.00 0.00 0.00 64 1010.3
20260509145052 21 250 1.6 9.7 0.00 0.00 0.00 66 1010.3
20260509144031 21 298 3.2 6.4 0.00 0.00 0.00 67 1010.4
20260509143029 20 315 3.2 6.4 0.00 0.00 0.00 69 1010.5